| time (UTC) | temp F | wind direction | speed MPH | gust MPH | rain 1hr in | rain 24hr in | rain mn in | humidity % | barometer mb |
| 20260507151404 | 55 | 302 | 0.0 | 3.0 | 0.00 | 0.00 | 0.00 | 62 | 1021.0 |
| 20260507150904 | 55 | 352 | 1.0 | 5.0 | 0.00 | 0.00 | 0.00 | 61 | 1021.0 |
| 20260507150403 | 55 | 68 | 0.0 | 6.0 | 0.00 | 0.00 | 0.00 | 62 | 1021.0 |
| 20260507144903 | 55 | 319 | 0.0 | 0.0 | 0.00 | 0.00 | 0.00 | 63 | 1021.0 |
| 20260507144403 | 55 | 338 | 3.0 | 5.0 | 0.00 | 0.00 | 0.00 | 61 | 1021.0 |
| 20260507143903 | 55 | 346 | 0.0 | 0.0 | 0.00 | 0.00 | 0.00 | 63 | 1021.0 |
| 20260507143404 | 55 | 45 | 0.0 | 6.0 | 0.00 | 0.00 | 0.00 | 63 | 1021.0 |
| 20260507141904 | 55 | 68 | 0.0 | 2.0 | 0.00 | 0.00 | 0.00 | 63 | 1021.0 |
| 20260507141405 | 55 | 68 | 0.0 | 0.0 | 0.00 | 0.00 | 0.00 | 64 | 1021.0 |
| 20260507140904 | 55 | 45 | 0.0 | 0.0 | 0.00 | 0.00 | 0.00 | 64 | 1021.0 |
| 20260507140403 | 55 | 0 | 0.0 | 2.0 | 0.00 | 0.00 | 0.00 | 64 | 1021.0 |
| 20260507134904 | 55 | 316 | 1.0 | 3.0 | 0.00 | 0.00 | 0.00 | 63 | 1020.0 |
| 20260507134404 | 55 | 112 | 0.0 | 0.0 | 0.00 | 0.00 | 0.00 | 64 | 1020.0 |
| 20260507133903 | 55 | 356 | 1.0 | 2.0 | 0.00 | 0.00 | 0.00 | 64 | 1020.0 |
| 20260507133404 | 55 | 22 | 0.0 | 1.0 | 0.00 | 0.00 | 0.00 | 64 | 1020.0 |
| 20260507130904 | 55 | 11 | 0.0 | 0.0 | 0.00 | 0.00 | 0.00 | 63 | 1021.0 |
| 20260507130404 | 54 | 349 | 2.0 | 5.0 | 0.00 | 0.00 | 0.00 | 62 | 1021.0 |
| 20260507124904 | 55 | 45 | 0.0 | 2.0 | 0.00 | 0.00 | 0.00 | 63 | 1020.0 |
| 20260507124404 | 55 | 17 | 2.0 | 5.0 | 0.00 | 0.00 | 0.00 | 63 | 1020.0 |
| 20260507123904 | 55 | 45 | 0.0 | 0.0 | 0.00 | 0.00 | 0.00 | 64 | 1020.0 |
| 20260507123404 | 55 | 45 | 0.0 | 1.0 | 0.00 | 0.00 | 0.00 | 64 | 1020.0 |
| 20260507121904 | 55 | 18 | 1.0 | 1.0 | 0.00 | 0.00 | 0.00 | 65 | 1021.0 |
| 20260507120904 | 55 | 22 | 0.0 | 0.0 | 0.00 | 0.00 | 0.00 | 64 | 1021.0 |
| 20260507120405 | 55 | 271 | 0.0 | 2.0 | 0.00 | 0.00 | 0.00 | 65 | 1021.0 |
| 20260507114904 | 55 | 0 | 0.0 | 0.0 | 0.00 | 0.00 | 0.00 | 65 | 1021.0 |
| 20260507114404 | 55 | 315 | 0.0 | 1.0 | 0.00 | 0.00 | 0.00 | 65 | 1021.0 |
| 20260507113904 | 55 | 22 | 0.0 | 0.0 | 0.00 | 0.00 | 0.00 | 65 | 1021.0 |
| 20260507113404 | 55 | 351 | 0.0 | 3.0 | 0.00 | 0.00 | 0.00 | 65 | 1021.0 |
| 20260507110903 | 55 | 296 | 2.0 | 5.0 | 0.00 | 0.00 | 0.00 | 64 | 1021.0 |
| 20260507110403 | 56 | 327 | 1.0 | 2.0 | 0.00 | 0.00 | 0.00 | 65 | 1021.0 |
| 20260507104403 | 55 | 7 | 1.0 | 3.0 | 0.00 | 0.00 | 0.00 | 64 | 1021.0 |
| 20260507103903 | 56 | 270 | 1.0 | 3.0 | 0.00 | 0.00 | 0.00 | 65 | 1021.0 |
| 20260507103403 | 56 | 304 | 1.0 | 5.0 | 0.00 | 0.00 | 0.00 | 65 | 1021.0 |
| 20260507101903 | 56 | 322 | 3.0 | 6.0 | 0.00 | 0.00 | 0.00 | 64 | 1021.0 |
| 20260507101404 | 56 | 342 | 1.0 | 5.0 | 0.00 | 0.00 | 0.00 | 64 | 1021.0 |
| 20260507100903 | 56 | 303 | 1.0 | 5.0 | 0.00 | 0.00 | 0.00 | 65 | 1021.0 |
| 20260507100404 | 56 | 303 | 0.0 | 3.0 | 0.00 | 0.00 | 0.00 | 65 | 1021.0 |
| 20260507094403 | 56 | 321 | 0.0 | 3.0 | 0.00 | 0.00 | 0.00 | 66 | 1021.0 |
| 20260507093904 | 56 | 112 | 0.0 | 2.0 | 0.00 | 0.00 | 0.00 | 66 | 1021.0 |
| 20260507091903 | 56 | 12 | 1.0 | 2.0 | 0.00 | 0.00 | 0.00 | 66 | 1021.0 |
| 20260507091403 | 56 | 297 | 2.0 | 5.0 | 0.00 | 0.00 | 0.00 | 65 | 1021.0 |
| 20260507090904 | 56 | 307 | 2.0 | 5.0 | 0.00 | 0.00 | 0.00 | 66 | 1021.0 |
| 20260507090404 | 56 | 315 | 1.0 | 2.0 | 0.00 | 0.00 | 0.00 | 66 | 1021.0 |
| 20260507084903 | 56 | 0 | 0.0 | 3.0 | 0.00 | 0.00 | 0.00 | 66 | 1021.0 |
| 20260507084404 | 57 | 327 | 1.0 | 3.0 | 0.00 | 0.00 | 0.00 | 67 | 1021.0 |
| 20260507083404 | 57 | 3 | 0.0 | 0.0 | 0.00 | 0.00 | 0.00 | 67 | 1021.0 |
| 20260507081904 | 57 | 25 | 0.0 | 0.0 | 0.00 | 0.00 | 0.00 | 67 | 1021.0 |
| 20260507081404 | 57 | 307 | 0.0 | 3.0 | 0.00 | 0.00 | 0.00 | 67 | 1021.0 |
| 20260507080905 | 57 | 0 | 1.0 | 2.0 | 0.00 | 0.00 | 0.00 | 67 | 1021.0 |
| 20260507080405 | 57 | 22 | 0.0 | 3.0 | 0.00 | 0.00 | 0.00 | 66 | 1021.0 |
| 20260507074904 | 57 | 330 | 0.0 | 0.0 | 0.00 | 0.00 | 0.00 | 66 | 1021.0 |
| 20260507074404 | 57 | 320 | 0.0 | 2.0 | 0.00 | 0.00 | 0.00 | 66 | 1021.0 |
| 20260507073905 | 57 | 315 | 0.0 | 0.0 | 0.00 | 0.00 | 0.00 | 66 | 1021.0 |
| 20260507073404 | 57 | 22 | 0.0 | 0.0 | 0.00 | 0.00 | 0.00 | 66 | 1021.0 |
| 20260507071904 | 57 | 45 | 0.0 | 5.0 | 0.00 | 0.00 | 0.00 | 66 | 1021.0 |
| 20260507071404 | 57 | 316 | 3.0 | 5.0 | 0.00 | 0.00 | 0.00 | 65 | 1021.0 |
| 20260507070904 | 57 | 29 | 1.0 | 3.0 | 0.00 | 0.00 | 0.00 | 66 | 1021.0 |
| 20260507070404 | 57 | 0 | 1.0 | 6.0 | 0.00 | 0.00 | 0.00 | 66 | 1021.0 |
| 20260507064904 | 57 | 300 | 0.0 | 3.0 | 0.00 | 0.00 | 0.00 | 66 | 1021.0 |
| 20260507064405 | 57 | 306 | 1.0 | 6.0 | 0.00 | 0.00 | 0.00 | 66 | 1021.0 |
| 20260507063904 | 57 | 328 | 1.0 | 6.0 | 0.00 | 0.00 | 0.00 | 66 | 1021.0 |
| 20260507063404 | 57 | 301 | 1.0 | 5.0 | 0.00 | 0.00 | 0.00 | 66 | 1021.0 |
| 20260507061905 | 57 | 287 | 2.0 | 3.0 | 0.00 | 0.00 | 0.00 | 65 | 1021.0 |
| 20260507060405 | 58 | 299 | 0.0 | 3.0 | 0.00 | 0.00 | 0.00 | 66 | 1021.0 |
| 20260507031404 | 61 | 300 | 5.0 | 6.0 | 0.00 | 0.00 | 0.00 | 64 | 1020.0 |
| 20260507030904 | 61 | 79 | 0.0 | 5.0 | 0.00 | 0.00 | 0.00 | 65 | 1020.0 |
| 20260507030403 | 61 | 68 | 1.0 | 7.0 | 0.00 | 0.00 | 0.00 | 64 | 1020.0 |
| 20260507024905 | 62 | 342 | 3.0 | 7.0 | 0.00 | 0.00 | 0.00 | 64 | 1020.0 |
| 20260507024404 | 62 | 327 | 0.0 | 6.0 | 0.00 | 0.00 | 0.00 | 64 | 1020.0 |
| 20260507023904 | 63 | 22 | 1.0 | 6.0 | 0.00 | 0.00 | 0.00 | 64 | 1020.0 |
| 20260507021904 | 64 | 26 | 1.0 | 5.0 | 0.00 | 0.00 | 0.00 | 64 | 1020.0 |
| 20260507021404 | 64 | 45 | 0.0 | 2.0 | 0.00 | 0.00 | 0.00 | 64 | 1020.0 |
| 20260507020904 | 64 | 333 | 0.0 | 2.0 | 0.00 | 0.00 | 0.00 | 64 | 1020.0 |
| 20260507020403 | 64 | 349 | 1.0 | 6.0 | 0.00 | 0.00 | 0.00 | 63 | 1020.0 |
| 20260507014904 | 65 | 354 | 5.0 | 7.0 | 0.00 | 0.00 | 0.00 | 63 | 1020.0 |
| 20260507014404 | 65 | 333 | 2.0 | 6.0 | 0.00 | 0.00 | 0.00 | 64 | 1020.0 |
| 20260507013903 | 65 | 310 | 2.0 | 6.0 | 0.00 | 0.00 | 0.00 | 64 | 1020.0 |
| 20260507013403 | 66 | 12 | 1.0 | 7.0 | 0.00 | 0.00 | 0.00 | 64 | 1020.0 |
| 20260507011904 | 66 | 306 | 1.0 | 3.0 | 0.00 | 0.00 | 0.00 | 63 | 1020.0 |
| 20260507010904 | 66 | 337 | 0.0 | 2.0 | 0.00 | 0.00 | 0.00 | 64 | 1020.0 |
| 20260507010403 | 66 | 310 | 1.0 | 5.0 | 0.00 | 0.00 | 0.00 | 63 | 1020.0 |
| 20260507004905 | 66 | 0 | 0.0 | 2.0 | 0.00 | 0.00 | 0.00 | 63 | 1020.0 |
| 20260507004404 | 66 | 38 | 1.0 | 2.0 | 0.00 | 0.00 | 0.00 | 63 | 1020.0 |
| 20260507003404 | 67 | 57 | 0.0 | 3.0 | 0.00 | 0.00 | 0.00 | 62 | 1020.0 |
| 20260507001904 | 67 | 338 | 0.0 | 2.0 | 0.00 | 0.00 | 0.00 | 63 | 1020.0 |
| 20260507001404 | 67 | 68 | 0.0 | 0.0 | 0.00 | 0.00 | 0.00 | 62 | 1020.0 |
| 20260507000904 | 67 | 248 | 0.0 | 3.0 | 0.00 | 0.00 | 0.00 | 61 | 1020.0 |
| 20260507000405 | 67 | 101 | 0.0 | 5.0 | 0.00 | 0.00 | 0.00 | 61 | 1020.0 |
| 20260506234904 | 69 | 244 | 0.0 | 2.0 | 0.00 | 0.00 | 0.00 | 60 | 1020.0 |
| 20260506234404 | 68 | 342 | 1.0 | 3.0 | 0.00 | 0.00 | 0.00 | 60 | 1020.0 |
| 20260506233904 | 69 | 235 | 1.0 | 5.0 | 0.00 | 0.00 | 0.00 | 60 | 1020.0 |
| 20260506233404 | 70 | 11 | 2.0 | 5.0 | 0.00 | 0.00 | 0.00 | 55 | 1020.0 |
| 20260506231904 | 67 | 131 | 0.0 | 0.0 | 0.00 | 0.00 | 0.00 | 64 | 1020.0 |
| 20260506231404 | 67 | 197 | 0.0 | 1.0 | 0.00 | 0.00 | 0.00 | 64 | 1020.0 |
| 20260506230903 | 67 | 124 | 0.0 | 0.0 | 0.00 | 0.00 | 0.00 | 63 | 1020.0 |
| 20260506230404 | 66 | 45 | 1.0 | 2.0 | 0.00 | 0.00 | 0.00 | 64 | 1020.0 |
| 20260506224903 | 67 | 26 | 1.0 | 3.0 | 0.00 | 0.00 | 0.00 | 62 | 1020.0 |
| 20260506224404 | 67 | 292 | 1.0 | 5.0 | 0.00 | 0.00 | 0.00 | 64 | 1021.0 |
| 20260506223904 | 67 | 311 | 0.0 | 5.0 | 0.00 | 0.00 | 0.00 | 64 | 1021.0 |
| 20260506223404 | 67 | 43 | 0.0 | 5.0 | 0.00 | 0.00 | 0.00 | 63 | 1021.0 |
| 20260506221404 | 67 | 146 | 1.0 | 3.0 | 0.00 | 0.00 | 0.00 | 62 | 1021.0 |
| 20260506220904 | 67 | 19 | 3.0 | 5.0 | 0.00 | 0.00 | 0.00 | 62 | 1021.0 |
| 20260506220404 | 68 | 197 | 1.0 | 7.0 | 0.00 | 0.00 | 0.00 | 61 | 1021.0 |
| 20260506214905 | 67 | 172 | 1.0 | 6.0 | 0.00 | 0.00 | 0.00 | 62 | 1021.0 |
| 20260506213904 | 66 | 180 | 1.0 | 3.0 | 0.00 | 0.00 | 0.00 | 64 | 1021.0 |
| 20260506213403 | 66 | 195 | 1.0 | 5.0 | 0.00 | 0.00 | 0.00 | 67 | 1021.0 |
| 20260506211904 | 65 | 248 | 1.0 | 3.0 | 0.00 | 0.00 | 0.00 | 67 | 1020.0 |
| 20260506211404 | 66 | 306 | 0.0 | 2.0 | 0.00 | 0.00 | 0.00 | 68 | 1021.0 |
| 20260506210904 | 65 | 302 | 1.0 | 3.0 | 0.00 | 0.00 | 0.00 | 68 | 1021.0 |
| 20260506210403 | 65 | 205 | 0.0 | 5.0 | 0.00 | 0.00 | 0.00 | 69 | 1021.0 |
| 20260506204905 | 64 | 232 | 2.0 | 5.0 | 0.00 | 0.00 | 0.00 | 69 | 1021.0 |
| 20260506204403 | 64 | 220 | 2.0 | 3.0 | 0.00 | 0.00 | 0.00 | 69 | 1021.0 |
| 20260506203904 | 64 | 256 | 4.0 | 7.0 | 0.00 | 0.00 | 0.00 | 68 | 1021.0 |
| 20260506203403 | 64 | 250 | 3.0 | 6.0 | 0.00 | 0.00 | 0.00 | 68 | 1021.0 |
| 20260506201903 | 63 | 253 | 1.0 | 5.0 | 0.00 | 0.00 | 0.00 | 70 | 1021.0 |
| 20260506201403 | 63 | 221 | 0.0 | 0.0 | 0.00 | 0.00 | 0.00 | 71 | 1021.0 |
| 20260506200904 | 63 | 224 | 3.0 | 5.0 | 0.00 | 0.00 | 0.00 | 70 | 1021.0 |
| 20260506194904 | 63 | 303 | 0.0 | 2.0 | 0.00 | 0.00 | 0.00 | 72 | 1020.0 |
| 20260506194404 | 62 | 344 | 0.0 | 3.0 | 0.00 | 0.00 | 0.00 | 72 | 1021.0 |
| 20260506193904 | 62 | 229 | 0.0 | 2.0 | 0.00 | 0.00 | 0.00 | 71 | 1021.0 |
| 20260506193404 | 63 | 282 | 1.0 | 2.0 | 0.00 | 0.00 | 0.00 | 71 | 1021.0 |
| 20260506191904 | 62 | 169 | 1.0 | 2.0 | 0.00 | 0.00 | 0.00 | 73 | 1020.0 |
| 20260506191403 | 62 | 243 | 1.0 | 3.0 | 0.00 | 0.00 | 0.00 | 73 | 1021.0 |
| 20260506190404 | 62 | 142 | 1.0 | 5.0 | 0.00 | 0.00 | 0.00 | 73 | 1021.0 |
| 20260506184904 | 61 | 249 | 2.0 | 5.0 | 0.00 | 0.00 | 0.00 | 73 | 1020.0 |
| 20260506184405 | 61 | 222 | 2.0 | 5.0 | 0.00 | 0.00 | 0.00 | 73 | 1021.0 |
| 20260506183903 | 61 | 331 | 1.0 | 5.0 | 0.00 | 0.00 | 0.00 | 74 | 1021.0 |
| 20260506183403 | 61 | 338 | 0.0 | 3.0 | 0.00 | 0.00 | 0.00 | 75 | 1021.0 |
| 20260506181403 | 60 | 280 | 0.0 | 2.0 | 0.00 | 0.00 | 0.00 | 76 | 1021.0 |
| 20260506180904 | 60 | 249 | 0.0 | 0.0 | 0.00 | 0.00 | 0.00 | 77 | 1021.0 |
| 20260506180404 | 60 | 348 | 0.0 | 2.0 | 0.00 | 0.00 | 0.00 | 77 | 1021.0 |
| 20260506174404 | 59 | 251 | 1.0 | 3.0 | 0.00 | 0.00 | 0.00 | 77 | 1021.0 |
| 20260506173903 | 59 | 245 | 2.0 | 5.0 | 0.00 | 0.00 | 0.00 | 78 | 1021.0 |
| 20260506173404 | 59 | 259 | 1.0 | 3.0 | 0.00 | 0.00 | 0.00 | 78 | 1021.0 |
| 20260506171903 | 59 | 210 | 0.0 | 0.0 | 0.00 | 0.00 | 0.00 | 77 | 1021.0 |
| 20260506171403 | 59 | 327 | 0.0 | 0.0 | 0.00 | 0.00 | 0.00 | 77 | 1021.0 |
| 20260506170904 | 59 | 203 | 0.0 | 0.0 | 0.00 | 0.00 | 0.00 | 77 | 1021.0 |
| 20260506170404 | 59 | 191 | 0.0 | 3.0 | 0.00 | 0.00 | 0.00 | 77 | 1021.0 |
| 20260506164904 | 59 | 220 | 1.0 | 3.0 | 0.00 | 0.00 | 0.00 | 76 | 1021.0 |
| 20260506163904 | 60 | 39 | 0.0 | 0.0 | 0.00 | 0.00 | 0.00 | 75 | 1021.0 |
| 20260506163404 | 59 | 248 | 0.0 | 3.0 | 0.00 | 0.00 | 0.00 | 75 | 1021.0 |
| 20260506161903 | 59 | 45 | 0.0 | 0.0 | 0.00 | 0.00 | 0.00 | 75 | 1021.0 |
| 20260506161404 | 59 | 107 | 1.0 | 3.0 | 0.00 | 0.00 | 0.00 | 75 | 1020.0 |
| 20260506160903 | 59 | 33 | 0.0 | 2.0 | 0.00 | 0.00 | 0.00 | 75 | 1020.0 |
| 20260506160404 | 59 | 194 | 2.0 | 6.0 | 0.00 | 0.00 | 0.00 | 76 | 1020.0 |
| 20260506154904 | 58 | 112 | 0.0 | 0.0 | 0.00 | 0.00 | 0.00 | 75 | 1021.0 |
| 20260506154404 | 58 | 338 | 0.0 | 0.0 | 0.00 | 0.00 | 0.00 | 76 | 1021.0 |
| 20260506153904 | 58 | 25 | 2.0 | 5.0 | 0.00 | 0.00 | 0.00 | 76 | 1021.0 |
| 20260506153404 | 58 | 335 | 1.0 | 6.0 | 0.00 | 0.00 | 0.00 | 76 | 1021.0 |
| 20260506151904 | 58 | 292 | 3.0 | 5.0 | 0.00 | 0.00 | 0.00 | 76 | 1021.0 |